GW2011 Weather Reports


Display with metric or nautical units.
time (UTC)temp
F
wind
direction
speed
MPH
gust
MPH
rain 1hr
in
rain 24hr
in
rain mn
in
humidity
%
barometer
mb
20260507151532 46 261 3.0 6.0 0.00 0.00 0.00 45 1008.9
20260507151015 46 211 1.0 6.0 0.00 0.00 0.00 42 1008.9
20260507150515 45 165 2.0 7.0 0.00 0.00 0.00 44 1009.0
20260507150032 45 263 3.0 8.0 0.00 0.00 0.00 45 1008.8
20260507145514 45 229 4.0 8.0 0.00 0.00 0.00 46 1008.9
20260507145014 45 220 2.0 5.0 0.00 0.00 0.00 46 1008.9
20260507144535 45 209 2.0 5.0 0.00 0.00 0.00 46 1009.0
20260507144012 45 210 2.0 5.0 0.00 0.00 0.00 50 1008.9
20260507143513 44 202 1.0 4.0 0.00 0.00 0.00 50 1008.8
20260507143032 44 233 1.0 7.0 0.00 0.00 0.00 48 1009.0
20260507142514 44 242 3.0 7.0 0.00 0.00 0.00 47 1009.0
20260507142014 43 190 2.0 6.0 0.00 0.00 0.00 52 1009.1
20260507141533 43 184 1.0 5.0 0.00 0.00 0.00 55 1009.0
20260507141011 43 185 2.0 5.0 0.00 0.00 0.00 57 1008.9
20260507140516 43 173 2.0 6.0 0.00 0.00 0.00 57 1009.1
20260507140032 42 161 3.0 6.0 0.00 0.00 0.00 59 1009.0
20260507135515 42 191 1.0 6.0 0.00 0.00 0.00 60 1009.2
20260507135016 41 209 3.0 6.0 0.00 0.00 0.00 64 1009.1
20260507134531 41 223 1.0 4.0 0.00 0.00 0.00 67 1009.2
20260507134015 40 243 1.0 4.0 0.00 0.00 0.00 70 1009.0
20260507133513 40 244 2.0 4.0 0.00 0.00 0.00 71 1009.1
20260507133034 39 250 1.0 4.0 0.00 0.00 0.00 74 1008.9
20260507132513 38 0 0.0 2.0 0.00 0.00 0.00 77 1009.0
20260507132011 37 309 0.0 2.0 0.00 0.00 0.00 78 1009.2
20260507131537 36 0 0.0 2.0 0.00 0.00 0.00 79 1009.0
20260507131012 36 0 0.0 1.0 0.00 0.00 0.00 79 1009.0
20260507130516 35 0 0.0 1.0 0.00 0.00 0.00 81 1009.0
20260507130039 34 0 0.0 1.0 0.00 0.00 0.00 82 1009.1
20260507125513 34 0 0.0 2.0 0.00 0.00 0.00 82 1009.2
20260507125012 34 0 0.0 2.0 0.00 0.00 0.00 84 1009.1
20260507124531 33 309 0.0 2.0 0.00 0.00 0.00 85 1009.0
20260507124011 32 0 0.0 2.0 0.00 0.00 0.00 87 1009.1
20260507123515 32 0 0.0 2.0 0.00 0.00 0.00 87 1009.1
20260507123033 32 309 1.0 2.0 0.00 0.00 0.00 88 1009.1
20260507122515 31 0 0.0 1.0 0.00 0.00 0.00 88 1009.2
20260507122014 31 0 0.0 2.0 0.00 0.00 0.00 88 1009.2
20260507121531 31 295 0.0 2.0 0.00 0.00 0.00 89 1009.2
20260507121012 30 0 0.0 2.0 0.00 0.00 0.00 89 1009.1
20260507120512 30 295 0.0 2.0 0.00 0.00 0.00 89 1009.1
20260507120030 30 295 1.0 2.0 0.00 0.00 0.00 89 1009.1
20260507115515 29 0 0.0 2.0 0.00 0.00 0.00 88 1009.2
20260507115018 29 0 0.0 1.0 0.00 0.00 0.00 88 1009.1
20260507114536 29 0 0.0 1.0 0.00 0.00 0.00 87 1009.1
20260507114018 29 295 0.0 1.0 0.00 0.00 0.00 87 1009.1
20260507113514 28 0 0.0 1.0 0.00 0.00 0.00 87 1009.1
20260507113034 28 0 0.0 1.0 0.00 0.00 0.00 86 1009.1
20260507112514 28 0 0.0 0.0 0.00 0.00 0.00 87 1009.1
20260507112013 28 0 0.0 1.0 0.00 0.00 0.00 87 1009.1
20260507111532 28 0 0.0 1.0 0.00 0.00 0.00 87 1009.2
20260507111013 28 0 0.0 1.0 0.00 0.00 0.00 87 1009.1
20260507110513 28 0 0.0 1.0 0.00 0.00 0.00 86 1009.1
20260507110034 28 0 0.0 1.0 0.00 0.00 0.00 86 1009.1
20260507105515 28 0 0.0 0.0 0.00 0.00 0.00 87 1009.1
20260507105015 28 0 0.0 0.0 0.00 0.00 0.00 87 1009.1
20260507104531 28 0 0.0 0.0 0.00 0.00 0.00 87 1009.1
20260507104011 28 0 0.0 1.0 0.00 0.00 0.00 87 1009.2
20260507103514 28 0 0.0 1.0 0.00 0.00 0.00 87 1009.1
20260507103033 28 0 0.0 1.0 0.00 0.00 0.00 87 1009.2
20260507102515 28 0 0.0 1.0 0.00 0.00 0.00 87 1009.2
20260507102015 28 0 0.0 1.0 0.00 0.00 0.00 86 1009.1
20260507101532 28 0 0.0 1.0 0.00 0.00 0.00 86 1009.2
20260507101012 28 0 0.0 1.0 0.00 0.00 0.00 86 1009.2
20260507100513 28 0 0.0 1.0 0.00 0.00 0.00 86 1009.2
20260507100035 28 0 0.0 1.0 0.00 0.00 0.00 85 1009.2
20260507095515 28 0 0.0 1.0 0.00 0.00 0.00 85 1009.3
20260507095014 28 0 0.0 1.0 0.00 0.00 0.00 84 1009.4
20260507094532 28 0 0.0 1.0 0.00 0.00 0.00 84 1009.2
20260507094014 28 0 0.0 1.0 0.00 0.00 0.00 84 1009.2
20260507093519 28 0 0.0 1.0 0.00 0.00 0.00 84 1009.2
20260507093035 28 0 0.0 1.0 0.00 0.00 0.00 84 1009.3
20260507092520 28 0 0.0 2.0 0.00 0.00 0.00 83 1009.3
20260507092017 28 0 1.0 2.0 0.00 0.00 0.00 83 1009.3
20260507091535 28 0 0.0 0.0 0.00 0.00 0.00 83 1009.3
20260507091015 28 0 0.0 0.0 0.00 0.00 0.00 83 1009.3
20260507090517 28 0 0.0 0.0 0.00 0.00 0.00 82 1009.3
20260507090034 28 0 0.0 0.0 0.00 0.00 0.00 82 1009.4
20260507085517 29 0 0.0 1.0 0.00 0.00 0.00 82 1009.2
20260507085016 29 0 0.0 1.0 0.00 0.00 0.00 81 1009.2
20260507084532 29 0 0.0 1.0 0.00 0.00 0.00 82 1009.4
20260507084016 29 0 0.0 1.0 0.00 0.00 0.00 81 1009.4
20260507083520 29 0 0.0 1.0 0.00 0.00 0.00 81 1009.3
20260507083034 29 0 0.0 1.0 0.00 0.00 0.00 82 1009.3
20260507082516 29 0 0.0 1.0 0.00 0.00 0.00 82 1009.3
20260507082014 29 0 0.0 1.0 0.00 0.00 0.00 82 1009.4
20260507081532 29 0 0.0 1.0 0.00 0.00 0.00 81 1009.5
20260507081016 29 295 0.0 1.0 0.00 0.00 0.00 81 1009.4
20260507080515 29 295 0.0 1.0 0.00 0.00 0.00 81 1009.5
20260507080038 29 0 0.0 1.0 0.00 0.00 0.00 81 1009.4
20260507075515 29 0 0.0 1.0 0.00 0.00 0.00 81 1009.4
20260507075015 30 0 0.0 1.0 0.00 0.00 0.00 81 1009.5
20260507074534 30 0 0.0 2.0 0.00 0.00 0.00 82 1009.6
20260507074018 30 0 0.0 2.0 0.00 0.00 0.00 81 1009.5
20260507073515 30 0 0.0 1.0 0.00 0.00 0.00 80 1009.5
20260507073033 30 295 0.0 2.0 0.00 0.00 0.00 80 1009.6
20260507072515 30 0 0.0 2.0 0.00 0.00 0.00 80 1009.8
20260507072017 30 295 0.0 2.0 0.00 0.00 0.00 80 1009.7
20260507071558 30 0 0.0 1.0 0.00 0.00 0.00 81 1009.8
20260507071015 30 295 0.0 2.0 0.00 0.00 0.00 81 1010.0
20260507070516 30 295 0.0 2.0 0.00 0.00 0.00 81 1010.0
20260507070037 30 295 0.0 1.0 0.00 0.00 0.00 80 1010.0
20260507065515 30 0 0.0 1.0 0.00 0.00 0.00 79 1009.9
20260507065018 31 0 0.0 2.0 0.00 0.00 0.00 79 1010.0
20260507064536 31 295 0.0 2.0 0.00 0.00 0.00 78 1010.0
20260507064020 31 0 0.0 1.0 0.00 0.00 0.00 78 1009.9
20260507063516 31 0 0.0 1.0 0.00 0.00 0.00 77 1010.1
20260507063034 31 0 0.0 1.0 0.00 0.00 0.00 76 1010.2
20260507062519 31 295 0.0 2.0 0.00 0.00 0.00 76 1010.3
20260507062016 32 0 0.0 2.0 0.00 0.00 0.00 76 1010.2
20260507061534 32 295 0.0 2.0 0.00 0.00 0.00 76 1010.2
20260507061016 32 0 0.0 2.0 0.00 0.00 0.00 77 1010.2
20260507060515 32 295 0.0 2.0 0.00 0.00 0.00 77 1010.1
20260507060036 32 295 0.0 1.0 0.00 0.00 0.00 77 1010.2
20260507055515 32 0 0.0 1.0 0.00 0.00 0.00 78 1010.3
20260507055015 32 295 0.0 1.0 0.00 0.00 0.00 77 1010.5
20260507054531 32 0 0.0 1.0 0.00 0.00 0.00 76 1010.4
20260507054015 32 0 0.0 1.0 0.00 0.00 0.00 76 1010.5
20260507053515 32 0 0.0 1.0 0.00 0.00 0.00 76 1010.4
20260507053057 32 0 0.0 1.0 0.00 0.00 0.00 75 1010.6
20260507052515 33 0 0.0 1.0 0.00 0.00 0.00 75 1010.6
20260507052015 33 295 0.0 1.0 0.00 0.00 0.00 74 1010.6
20260507051540 33 0 0.0 1.0 0.00 0.00 0.00 73 1010.7
20260507051014 33 0 0.0 1.0 0.00 0.00 0.00 73 1010.8
20260507050515 33 0 0.0 2.0 0.00 0.00 0.00 74 1010.9
20260507050037 34 0 0.0 2.0 0.00 0.00 0.00 74 1010.9
20260507045516 34 0 0.0 0.0 0.00 0.00 0.00 73 1010.7
20260507045017 34 0 0.0 0.0 0.00 0.00 0.00 72 1010.9
20260507044534 34 0 0.0 0.0 0.00 0.00 0.00 72 1011.0
20260507044016 34 0 0.0 1.0 0.00 0.00 0.00 71 1011.0
20260507043514 34 0 0.0 1.0 0.00 0.00 0.00 71 1010.9
20260507043037 35 0 0.0 1.0 0.00 0.00 0.00 70 1010.9
20260507042516 35 0 0.0 1.0 0.00 0.00 0.00 70 1010.9
20260507042016 35 0 0.0 1.0 0.00 0.00 0.00 69 1011.0
20260507041534 36 0 0.0 1.0 0.00 0.00 0.00 68 1011.1
20260507041015 36 0 0.0 1.0 0.00 0.00 0.00 68 1011.0
20260507040514 36 0 0.0 1.0 0.00 0.00 0.00 67 1011.1
20260507040034 36 0 0.0 1.0 0.00 0.00 0.00 66 1011.2
20260507035514 37 0 0.0 1.0 0.00 0.00 0.00 67 1011.2
20260507035015 37 0 0.0 1.0 0.00 0.00 0.00 65 1011.4
20260507034538 38 295 0.0 1.0 0.00 0.00 0.00 65 1011.2
20260507034015 38 0 0.0 1.0 0.00 0.00 0.00 64 1011.2
20260507033515 38 0 0.0 0.0 0.00 0.00 0.00 64 1011.1
20260507033040 38 0 0.0 0.0 0.00 0.00 0.00 63 1011.2
20260507032519 38 0 0.0 1.0 0.00 0.00 0.00 64 1011.2
20260507032016 38 0 0.0 1.0 0.00 0.00 0.00 63 1011.2
20260507031532 38 295 0.0 1.0 0.00 0.00 0.00 63 1011.3
20260507031018 39 295 0.0 1.0 0.00 0.00 0.00 64 1011.3
20260507030514 39 0 0.0 1.0 0.00 0.00 0.00 62 1011.3
20260507030032 39 0 0.0 1.0 0.00 0.00 0.00 62 1011.3
20260507025515 39 0 0.0 1.0 0.00 0.00 0.00 63 1011.2
20260507025015 40 0 0.0 1.0 0.00 0.00 0.00 62 1011.2
20260507024536 40 0 0.0 1.0 0.00 0.00 0.00 62 1011.2
20260507024015 40 0 0.0 1.0 0.00 0.00 0.00 61 1011.2
20260507023514 40 0 0.0 0.0 0.00 0.00 0.00 59 1011.1
20260507023035 40 0 0.0 0.0 0.00 0.00 0.00 57 1011.3
20260507022515 40 0 0.0 1.0 0.00 0.00 0.00 58 1011.2
20260507022014 41 0 0.0 1.0 0.00 0.00 0.00 58 1011.3
20260507021534 41 0 0.0 1.0 0.00 0.00 0.00 58 1011.1
20260507021017 41 0 0.0 0.0 0.00 0.00 0.00 57 1011.1
20260507020515 41 0 0.0 0.0 0.00 0.00 0.00 57 1011.1
20260507020035 41 0 0.0 0.0 0.00 0.00 0.00 56 1011.2
20260507015515 41 0 0.0 0.0 0.00 0.00 0.00 56 1011.0
20260507015021 41 0 0.0 0.0 0.00 0.00 0.00 56 1011.0
20260507014542 41 0 0.0 2.0 0.00 0.00 0.00 54 1011.1
20260507014014 41 0 0.0 2.0 0.00 0.00 0.00 54 1011.2
20260507013514 41 295 0.0 2.0 0.00 0.00 0.00 54 1011.2
20260507013034 42 0 0.0 2.0 0.00 0.00 0.00 54 1011.2
20260507012515 42 0 0.0 2.0 0.00 0.00 0.00 54 1011.1
20260507012015 42 295 0.0 2.0 0.00 0.00 0.00 55 1011.2
20260507011538 42 0 0.0 1.0 0.00 0.00 0.00 53 1011.0
20260507011015 42 0 0.0 2.0 0.00 0.00 0.00 53 1010.9
20260507010516 42 295 0.0 2.0 0.00 0.00 0.00 53 1011.0
20260507010035 42 0 0.0 3.0 0.00 0.00 0.00 53 1011.2
20260507005516 42 0 1.0 3.0 0.00 0.00 0.00 52 1011.1
20260507005015 42 294 0.0 3.0 0.00 0.00 0.00 53 1011.2
20260507004537 42 0 0.0 4.0 0.00 0.00 0.00 53 1011.1
20260507004016 42 0 0.0 4.0 0.00 0.00 0.00 53 1011.2
20260507003516 42 304 0.0 6.0 0.00 0.00 0.00 52 1011.2
20260507003034 43 304 1.0 6.0 0.00 0.00 0.00 52 1011.3
20260507002515 43 311 1.0 3.0 0.00 0.00 0.00 52 1011.3
20260507002017 43 252 0.0 4.0 0.00 0.00 0.00 52 1011.2
20260507001540 43 252 1.0 4.0 0.00 0.00 0.00 54 1011.3
20260507001014 43 38 0.0 3.0 0.00 0.00 0.00 51 1011.3
20260507000514 43 38 0.0 3.0 0.00 0.00 0.00 51 1011.2
20260507000032 43 301 1.0 4.0 0.00 0.00 0.00 52 1011.3
20260506235515 43 292 1.0 5.0 0.00 0.00 0.00 51 1011.5
20260506235015 43 306 2.0 5.0 0.00 0.00 0.00 51 1011.6
20260506234533 43 284 1.0 4.0 0.00 0.00 0.00 51 1011.5
20260506234015 43 246 1.0 7.0 0.00 0.00 0.00 51 1011.6
20260506233516 43 275 1.0 8.0 0.00 0.00 0.00 51 1011.6
20260506233031 43 292 2.0 8.0 0.00 0.00 0.00 52 1011.6
20260506232515 43 288 2.0 6.0 0.00 0.00 0.00 50 1011.8
20260506232013 43 313 1.0 6.0 0.00 0.00 0.00 52 1011.7
20260506231534 43 292 2.0 4.0 0.00 0.00 0.00 50 1011.7
20260506231014 43 284 2.0 7.0 0.00 0.00 0.00 50 1011.7
20260506230517 43 288 2.0 7.0 0.00 0.00 0.00 50 1011.7
20260506230037 43 300 2.0 5.0 0.00 0.00 0.00 50 1011.9
20260506225516 44 299 1.0 4.0 0.00 0.00 0.00 50 1011.8
20260506225015 43 306 1.0 4.0 0.00 0.00 0.00 52 1011.9
20260506224534 43 298 1.0 7.0 0.00 0.00 0.00 51 1011.9
20260506224014 43 283 1.0 7.0 0.00 0.00 0.00 52 1012.1
20260506223520 43 0 1.0 8.0 0.00 0.00 0.00 51 1012.0
20260506223033 43 0 3.0 8.0 0.00 0.00 0.00 50 1011.9
20260506222516 43 297 2.0 5.0 0.00 0.00 0.00 51 1011.8
20260506222013 43 302 1.0 5.0 0.00 0.00 0.00 52 1012.0
20260506221532 43 311 1.0 7.0 0.00 0.00 0.00 52 1012.0
20260506221013 43 279 2.0 7.0 0.00 0.00 0.00 53 1012.0
20260506220515 43 253 2.0 7.0 0.00 0.00 0.00 52 1012.1
20260506220038 43 333 2.0 7.0 0.00 0.00 0.00 53 1012.1
20260506215517 43 271 3.0 8.0 0.00 0.00 0.00 56 1012.2
20260506215015 42 289 3.0 9.0 0.00 0.00 0.00 52 1012.2
20260506214531 42 282 3.0 12.0 0.00 0.00 0.00 54 1012.2
20260506214012 42 281 6.0 12.0 0.00 0.00 0.00 56 1012.3
20260506213515 42 249 3.0 9.0 0.00 0.00 0.00 54 1012.3
20260506213032 43 271 5.0 9.0 0.00 0.00 0.00 52 1012.4
20260506212517 42 309 2.0 7.0 0.00 0.00 0.00 52 1012.5
20260506212013 42 292 2.0 10.0 0.00 0.00 0.00 53 1012.5
20260506211534 42 292 4.0 12.0 0.00 0.00 0.00 53 1012.6
20260506211015 42 277 6.0 12.0 0.00 0.00 0.00 57 1012.5
20260506210514 42 258 5.0 11.0 0.00 0.00 0.00 56 1012.6
20260506210032 42 276 5.0 11.0 0.00 0.00 0.00 52 1012.8
20260506205514 42 254 6.0 13.0 0.00 0.00 0.00 57 1012.6
20260506205014 42 257 6.0 13.0 0.00 0.00 0.00 55 1012.6
20260506204534 43 271 6.0 11.0 0.00 0.00 0.00 53 1012.8
20260506204017 43 267 6.0 12.0 0.00 0.00 0.00 54 1012.7
20260506203516 43 271 6.0 12.0 0.00 0.00 0.00 54 1012.7
20260506203031 43 263 4.0 13.0 0.00 0.00 0.00 53 1012.5
20260506202513 43 36 3.0 14.0 0.00 0.00 0.00 51 1012.7
20260506202019 43 265 6.0 14.0 0.00 0.00 0.00 57 1012.7
20260506201532 43 265 5.0 11.0 0.00 0.00 0.00 54 1012.7
20260506201014 43 310 6.0 11.0 0.00 0.00 0.00 54 1012.9
20260506200516 43 287 4.0 10.0 0.00 0.00 0.00 54 1012.6
20260506200033 43 270 4.0 10.0 0.00 0.00 0.00 52 1012.6
20260506195515 43 303 6.0 10.0 0.00 0.00 0.00 52 1012.7
20260506195016 43 281 4.0 13.0 0.00 0.00 0.00 54 1012.8
20260506194532 43 268 7.0 13.0 0.00 0.00 0.00 53 1012.7
20260506194013 43 307 4.0 10.0 0.00 0.00 0.00 51 1012.8
20260506193513 42 292 3.0 13.0 0.00 0.00 0.00 52 1012.7
20260506193031 42 288 7.0 13.0 0.00 0.00 0.00 55 1012.7
20260506192515 42 286 6.0 14.0 0.00 0.00 0.00 53 1012.7
20260506192016 43 288 6.0 14.0 0.00 0.00 0.00 53 1012.6
20260506191534 43 280 4.0 9.0 0.00 0.00 0.00 52 1012.6
20260506191016 43 252 3.0 9.0 0.00 0.00 0.00 53 1012.8
20260506190519 42 316 2.0 8.0 0.00 0.00 0.00 52 1012.6
20260506190034 42 294 3.0 12.0 0.00 0.00 0.00 52 1012.8
20260506185515 42 336 4.0 12.0 0.00 0.00 0.00 55 1012.6
20260506185013 42 284 3.0 13.0 0.00 0.00 0.00 52 1012.8
20260506184534 41 283 7.0 13.0 0.00 0.00 0.00 56 1012.8
20260506184020 42 277 3.0 10.0 0.00 0.00 0.00 53 1012.8
20260506183515 42 257 3.0 10.0 0.00 0.00 0.00 55 1012.9
20260506183034 41 340 5.0 10.0 0.00 0.00 0.00 56 1012.8
20260506182516 41 252 4.0 10.0 0.00 0.00 0.00 54 1012.8
20260506182014 41 346 2.0 11.0 0.00 0.00 0.00 56 1013.0
20260506181532 41 281 4.0 11.0 0.00 0.00 0.00 54 1013.1
20260506181016 41 267 1.0 6.0 0.00 0.00 0.00 55 1013.1
20260506180517 41 355 3.0 6.0 0.00 0.00 0.00 54 1013.2
20260506180032 40 266 2.0 8.0 0.00 0.00 0.00 56 1013.1
20260506175515 40 286 2.0 8.0 0.00 0.00 0.00 55 1013.2
20260506175022 40 279 2.0 6.0 0.00 0.00 0.00 56 1013.3
20260506174532 40 326 2.0 7.0 0.00 0.00 0.00 54 1013.3
20260506174014 40 298 2.0 7.0 0.00 0.00 0.00 56 1013.4
20260506173515 40 277 2.0 9.0 0.00 0.00 0.00 56 1013.4
20260506173036 39 331 3.0 9.0 0.00 0.00 0.00 57 1013.4
20260506172515 39 280 2.0 6.0 0.00 0.00 0.00 58 1013.6
20260506172017 39 322 2.0 6.0 0.00 0.00 0.00 59 1013.6
20260506171533 39 312 1.0 7.0 0.00 0.00 0.00 59 1013.4
20260506171015 39 302 2.0 7.0 0.00 0.00 0.00 57 1013.7
20260506170515 39 334 0.0 3.0 0.00 0.00 0.00 58 1013.7
20260506170036 39 313 1.0 7.0 0.00 0.00 0.00 59 1013.7
20260506165515 39 288 2.0 7.0 0.00 0.00 0.00 56 1013.7
20260506165015 39 294 2.0 6.0 0.00 0.00 0.00 58 1013.7
20260506164534 39 305 3.0 6.0 0.00 0.00 0.00 57 1013.6
20260506164014 39 285 2.0 6.0 0.00 0.00 0.00 60 1013.6
20260506163515 39 299 2.0 6.0 0.00 0.00 0.00 59 1013.7
20260506163037 38 290 0.0 4.0 0.00 0.00 0.00 60 1013.8
20260506162515 38 0 1.0 4.0 0.00 0.00 0.00 59 1013.8
20260506162016 38 341 1.0 4.0 0.00 0.00 0.00 59 1013.8
20260506161535 38 319 1.0 5.0 0.00 0.00 0.00 58 1013.7
20260506161016 38 17 2.0 7.0 0.00 0.00 0.00 59 1013.8
20260506160517 38 290 3.0 7.0 0.00 0.00 0.00 59 1013.7
20260506160031 38 296 1.0 6.0 0.00 0.00 0.00 61 1013.6
20260506155513 38 292 2.0 6.0 0.00 0.00 0.00 59 1013.7
20260506155015 38 309 1.0 4.0 0.00 0.00 0.00 59 1013.9
20260506154533 38 0 1.0 6.0 0.00 0.00 0.00 59 1013.7
20260506154017 38 291 2.0 6.0 0.00 0.00 0.00 61 1013.8
20260506153516 38 330 2.0 4.0 0.00 0.00 0.00 60 1013.7
20260506153031 37 278 2.0 4.0 0.00 0.00 0.00 60 1013.6
20260506152513 37 309 0.0 4.0 0.00 0.00 0.00 61 1013.5
20260506152017 37 0 0.0 4.0 0.00 0.00 0.00 63 1013.4